Hopeland, PA (17533)

1:59 AM EDT on May 06, 2015 (GMT -0400)
Webster Hill | | Change Station
CLOSE
Current Station
Personal Weather Station
Location: Lititz, PA
Elevation: 482 ft
Nearby Weather Stations

Elev 482 ft 40.20 °N, 76.31 °W | Updated 10 seconds ago

Overcast
Overcast
63.3 °F
Feels Like 63.3 °F
N
0.0
Wind Variable Wind from WSW
Gusts 0.0 mph

Today
High -- | Low -- °F
--% Chance of Precip.
Yesterday
High -- | Low -- °F
Precip. -- in
5:58 AM 8:05 PM
Waning Gibbous, 95% visible
Pressure 30.21 in
Visibility 2.5 miles
Clouds Scattered Clouds 6000 ft
Dew Point 62 °F
Humidity 97%
Rainfall 0.00 in
Snow Depth Not available.
UV 0.0 out of 12
Pollen 9.90 out of 12
Air Quality Not available.
Flu Activity Sporadic
METAR KLNS 060553Z AUTO 00000KT 2 1/2SM BR SCT060 17/16 A3022 RMK AO2 SLP230 60018 T01670161 10228 20167 50004

More Conditions Fewer Conditions

Pressure 30.21 in
Visibility 2.5 miles
Clouds Scattered Clouds 6000 ft
Dew Point 62 °F
Humidity 97%
Rainfall 0.00 in
Snow Depth Not available.
UV 0.0 out of 12
Pollen 9.90 out of 12
Air Quality Not available.
Flu Activity Sporadic
METAR KLNS 060553Z AUTO 00000KT 2 1/2SM BR SCT060 17/16 A3022 RMK AO2 SLP230 60018 T01670161 10228 20167 50004

More Conditions Fewer Conditions

Nowcast | as of 12:15 am EDT on May 6, 2015

A cluster of showers and isolated thunderstorms will move out of the eastern portion of the lower Susquehanna valley by 2 am. At 1210 am...most of the activity was east of a Mount Joy...York line. A brief heavy downpour will be possible. The activity is moving southeast at 20 mph.

×

10-Day Weather Forecast

Almanac

Astronomy

May. 06, 2015 Rise Set
Actual Time
Civil Twilight
Nautical Twilight
Astronomical Twilight
Moon
Length of Visible Light
Length of Day
Tomorrow will be .
, % of the Moon is Illuminated

Today's Extremes

State Highs State Lows

Community

WunderPhotos

Upload Photos

1,818,842 photos uploaded!

WunderBlogs® & News

Nearby

Air Quality

  Air Quality AQ Index Pollutant
Not available.

Snow Depth

Station Depth Elevation

Earthquake Activity

City Distance Mag. Time & Date
Minimum magnitude displayed is 2.5.

Coastal Water Temperatures

Place Temperature

Stations

Nearby Weather Stations

Station Location Temp. Windchill Dew Point Humidity Wind Precip. Elev Updated Type